EHI
0 0 0 0 0 0 0 0 0 0 0 0 0 0 0 1 3 3 3 3 3 3 4 6 8 12 13 10 8 8 9 9 8 6 4 1 0 0 0 1 1 1 1 0
0 0 0 0 0 0 0 0 0 0 0 0 0 0 1 2 3 3 2 2 3 3 4 7 10 12 12 10 8 9 10 10 10 8 5 1 0 0 1 2 2 2 2 1
0 0 0 0 0 0 0 0 0 0 0 0 1 1 1 2 3 3 2 2 3 3 5 8 11 12 12 10 8 8 9 11 12 10 6 3 1 2 3 4 4 4 3 2
0 0 0 0 0 0 0 0 0 0 0 1 2 2 1 2 3 3 3 2 3 4 6 10 12 13 11 9 8 7 7 9 11 10 7 5 3 4 5 6 6 6 5 4
0 0 0 0 0 0 0 0 0 0 1 2 3 3 3 3 4 5 3 2 2 4 8 11 13 13 12 11 10 9 7 7 8 9 7 6 6 6 6 6 7 7 6 4
0 0 0 0 0 0 0 0 0 1 2 3 3 3 3 4 5 7 6 4 3 6 10 12 13 13 14 14 13 11 8 6 7 7 6 6 5 5 5 6 7 7 5 3
0 0 0 0 0 0 0 0 0 1 2 2 1 2 3 5 6 8 10 8 5 7 11 13 13 13 14 14 12 9 6 6 6 5 5 4 4 4 5 6 6 5 2 1
0 0 0 0 0 0 0 0 0 1 1 1 1 3 4 6 7 9 11 9 6 6 9 11 11 10 10 9 7 5 4 4 4 3 3 4 4 5 6 6 6 4 2 1
0 0 0 0 0 0 0 0 0 0 1 1 2 3 4 5 6 8 9 7 5 4 6 7 7 7 6 4 2 3 3 3 3 2 1 3 5 6 7 7 8 6 4 3
0 0 0 0 0 0 0 0 0 0 1 2 3 3 3 3 4 6 6 5 4 4 5 5 4 4 3 2 2 3 3 4 4 2 1 2 4 5 6 8 8 6 5 4
0 0 0 0 0 0 0 0 0 0 1 2 3 3 3 3 4 5 5 5 5 5 6 5 3 3 3 3 3 3 4 5 4 2 2 2 2 3 4 5 5 4 3 3
0 0 1 1 1 0 0 0 0 0 0 1 2 3 3 4 4 5 4 4 5 6 6 5 4 3 3 3 3 4 5 4 2 1 1 1 1 1 1 1 1 1 1 1
0 1 2 2 2 1 1 1 1 1 1 2 3 4 4 5 6 6 5 4 4 5 6 6 5 5 3 3 3 3 4 3 1 0 0 0 0 0 0 0 0 0 0 0
1 1 3 3 3 3 3 2 3 3 4 5 5 6 6 7 7 7 7 5 4 4 5 6 6 5 4 3 3 3 3 2 1 0 0 1 1 1 1 1 1 0 0 0
2 3 3 3 4 4 4 3 4 4 5 5 6 6 6 7 6 6 5 5 4 3 4 5 4 4 3 3 3 3 3 3 1 1 1 2 2 2 2 2 2 1 0 0
2 2 2 2 3 3 3 3 3 4 4 4 4 4 4 4 3 2 2 3 3 3 3 4 4 4 4 3 2 2 3 2 2 2 3 3 3 3 3 3 3 2 0 0
1 1 1 1 1 1 2 2 2 2 2 2 2 2 1 1 1 1 1 1 1 1 3 4 4 5 5 4 3 3 3 2 2 3 3 3 3 3 3 3 3 2 0 0
0 0 0 0 0 0 1 1 1 1 1 1 1 1 0 0 0 1 2 1 1 1 3 3 3 4 5 4 3 3 3 3 3 3 3 3 3 3 2 2 2 1 0 0
0 0 0 0 0 0 0 0 0 0 0 0 0 0 0 0 0 1 2 2 2 2 2 2 1 1 3 4 3 3 3 3 3 3 3 2 2 1 1 1 1 1 0 0
0 0 0 0 0 0 0 0 0 0 0 0 0 0 0 0 0 0 1 2 2 1 1 0 0 0 1 2 2 3 3 4 4 4 3 1 0 0 0 0 0 0 0 0
0 0 0 0 0 0 0 0 0 0 0 0 0 0 0 0 0 0 0 1 1 0 0 0 0 0 0 0 1 2 3 4 4 4 2 1 0 0 0 0 0 0 0 0
0 0 0 0 0 0 0 0 0 0 0 0 0 0 0 0 0 0 0 0 0 0 0 0 0 0 0 0 0 1 1 2 2 2 1 0 0 0 0 0 0 0 0 0
0 0 0 0 0 0 0 0 0 0 0 0 0 0 0 0 0 0 0 0 0 0 0 0 0 0 0 0 0 0 0 0 0 0 0 0 0 0 0 0 0 0 0 0
0 0 0 0 0 0 0 0 0 0 0 0 0 0 0 0 0 0 0 0 0 0 0 0 0 0 0 0 0 0 0 0 0 0 0 0 0 0 0 0 0 0 0 0
0 0 0 0 0 0 0 0 0 0 0 0 0 0 0 0 0 0 0 0 0 0 0 0 0 0 0 0 0 0 0 0 0 0 0 0 0 0 0 0 0 0 0 0
0 0 0 0 0 0 0 0 0 0 0 0 0 0 0 0 0 0 0 0 0 0 0 0 0 0 0 0 0 0 0 0 0 0 0 0 0 0 0 0 0 0 0 0
0 0 0 0 0 0 0 0 0 0 0 0 0 0 0 0 0 0 0 0 0 0 0 0 0 0 0 0 0 0 0 0 0 0 0 0 0 0 0 0 0 0 0 0
Wind_Speed
3 3 3 3 4 6 6 7 8 7 7 7 6 5 5 4 4 5 4 5 6 6 5 5 4 4 4 3 3 3 3 3 3 2 2 1 1 1 1 1 1 0 1 1
1 1 1 1 2 4 4 4 4 3 5 4 2 2 3 3 5 5 5 6 7 6 5 5 5 4 4 3 3 4 4 3 2 2 2 2 1 1 0 0 0 1 1 1
2 2 2 3 4 5 4 4 6 6 6 2 3 5 6 6 6 7 6 6 6 6 6 5 5 5 4 3 3 3 3 3 2 2 2 2 1 1 1 1 1 1 1 1
2 2 4 7 2 3 3 2 3 3 3 5 5 4 3 4 6 6 5 5 5 5 5 5 5 4 4 3 4 4 3 2 2 2 2 2 1 1 1 1 1 1 1 1
4 3 4 4 1 3 4 2 3 4 3 2 2 3 1 2 4 5 5 5 5 5 5 5 5 5 5 4 3 3 3 3 3 3 2 2 2 2 1 1 1 1 1 1
4 4 6 6 3 1 4 3 3 5 5 4 5 2 4 2 2 2 2 2 3 4 4 5 4 5 5 4 4 3 4 4 3 3 3 3 3 2 1 1 1 1 1 1
4 3 6 5 4 2 4 7 3 5 6 6 5 5 3 2 2 3 2 2 3 4 4 4 4 5 5 4 4 3 2 1 2 2 3 3 2 1 1 1 0 0 1 1
4 3 5 3 2 3 6 3 1 3 4 5 3 1 2 3 3 3 3 3 4 4 3 3 4 5 5 3 2 2 2 1 1 1 1 1 1 1 1 1 1 0 0 1
6 6 4 2 2 3 1 1 1 2 3 4 3 2 2 2 2 2 3 3 3 4 3 3 3 4 4 3 2 3 2 2 2 1 1 1 2 1 1 1 1 1 1 1
1 3 3 3 2 2 1 1 1 2 3 5 4 3 3 3 2 1 2 2 3 4 4 2 2 3 3 3 3 3 2 2 1 1 1 1 1 2 2 2 2 2 2 2
2 4 4 3 2 2 2 2 2 2 2 4 5 3 3 3 3 2 2 2 3 3 3 3 3 2 3 4 4 3 2 1 1 1 2 1 1 1 2 3 4 4 3 3
5 5 3 4 3 1 1 1 1 2 2 2 4 5 3 2 2 2 3 2 2 2 2 2 2 2 2 3 4 4 2 2 2 2 2 2 1 1 1 2 2 4 4 3
5 3 3 3 2 1 0 0 2 2 3 3 2 3 4 2 2 3 3 3 3 3 2 2 2 2 2 3 4 4 3 3 2 2 2 2 2 1 1 2 1 1 3 3
3 1 1 2 2 1 1 1 2 2 2 3 3 3 3 3 2 2 3 3 3 3 2 2 2 2 2 2 3 3 3 3 2 2 2 2 2 2 1 1 1 2 2 3
2 3 3 1 0 1 1 2 3 2 2 2 3 4 4 3 3 2 1 2 3 3 2 2 2 2 1 2 2 2 2 2 2 2 2 2 2 1 1 1 2 2 2 2
1 0 2 2 1 0 1 2 1 0 0 1 2 3 3 4 3 2 2 3 3 3 2 2 2 2 1 2 2 2 2 2 2 1 1 1 1 1 1 1 2 2 2 2
2 2 2 2 2 2 1 1 2 2 2 2 3 3 3 3 3 2 1 2 2 3 3 3 3 2 1 2 2 2 2 2 2 2 2 2 2 2 1 2 2 3 3 2
4 4 4 4 4 3 2 1 1 2 2 2 2 3 4 4 4 3 2 2 1 0 1 2 1 1 1 1 2 2 2 2 2 2 2 2 2 2 1 2 3 3 3 2
1 2 2 2 3 3 2 2 2 2 2 3 3 3 2 2 3 2 2 3 2 2 3 2 1 1 1 2 1 1 2 1 1 1 1 1 1 1 1 2 2 2 2 2
1 1 1 0 1 2 2 2 1 1 2 3 4 3 2 1 2 2 2 2 3 3 3 2 1 1 1 1 1 2 2 2 2 1 1 1 2 2 2 2 2 2 2 2
2 2 2 1 1 0 1 2 2 2 2 3 4 4 3 2 2 2 2 1 3 2 2 2 2 1 1 1 1 1 2 2 2 2 2 2 2 2 1 1 2 2 2 2
1 1 1 1 1 1 1 1 1 2 2 2 3 3 3 2 1 1 2 3 2 2 1 1 1 1 1 1 1 1 1 1 1 1 1 1 2 2 2 2 2 2 2 2
0 0 0 0 0 0 1 0 1 2 2 2 3 3 3 3 2 2 2 2 1 2 1 2 2 2 2 1 1 1 1 1 1 1 1 1 1 2 2 2 2 2 2 2
1 1 1 1 1 1 1 2 1 0 1 1 2 2 2 2 1 2 2 1 2 2 1 2 3 2 2 1 1 1 1 1 1 1 1 1 1 1 1 1 2 2 2 2
1 1 1 1 1 1 1 1 1 0 0 0 1 1 1 2 2 2 1 1 1 2 1 1 1 2 2 1 1 1 1 1 1 1 0 0 1 1 1 1 1 2 2 2
1 0 1 1 1 1 1 1 1 1 1 0 1 1 0 0 1 1 1 1 2 2 1 1 1 1 1 1 1 1 1 1 1 1 1 0 1 1 1 1 1 1 1 1
1 1 1 1 1 1 1 1 1 1 1 1 1 1 0 0 1 1 1 1 1 1 1 1 1 1 1 1 1 1 1 1 1 1 1 0 1 1 1 1 1 1 1 1
Wind_Direction
215 220 179 195 194 180 182 182 183 219 220 242 228 216 208 188 161 152 163 171 175 176 176 172 174 179 177 176 171 162 156 174 207 214 202 196 203 222 226 192 204 190 108 77
313 328 178 229 223 186 193 179 192 198 244 241 205 163 173 184 172 177 186 188 188 182 177 178 180 182 178 178 171 158 165 186 196 188 185 197 209 196 197 239 216 115 130 139
232 304 56 267 230 188 192 197 175 198 225 171 176 191 192 190 185 192 195 195 190 188 188 185 181 176 180 178 159 157 167 178 183 182 194 216 222 206 226 232 206 204 199 171
138 102 216 242 265 173 164 205 198 201 209 191 201 204 201 191 185 192 195 193 193 187 180 175 167 162 155 148 153 159 167 181 189 184 205 218 200 215 237 234 226 239 235 232
131 184 260 291 246 165 164 242 211 191 195 170 126 76 342 219 184 189 194 195 193 186 171 157 158 158 143 146 158 164 185 199 201 194 200 202 211 229 226 212 246 262 244 229
134 164 221 246 281 188 115 271 232 179 178 160 121 124 252 220 177 183 183 177 172 156 144 150 160 148 143 156 167 194 213 216 203 193 195 203 214 222 219 206 229 255 278 262
151 194 253 271 298 114 153 239 228 181 179 170 178 199 213 164 161 165 157 156 152 148 155 167 153 142 147 158 193 210 206 214 193 193 203 200 198 197 190 196 188 204 301 301
145 176 253 314 88 163 223 267 203 182 179 175 181 156 136 151 158 149 135 125 140 149 158 148 143 145 152 182 194 139 143 169 180 187 213 179 158 172 162 152 160 179 308 316
184 204 240 270 230 262 222 215 219 178 179 158 153 161 151 158 156 154 137 140 144 149 142 132 147 153 162 184 140 132 146 183 191 177 184 161 164 183 187 162 185 231 240 274
267 273 279 285 309 335 340 230 222 154 151 145 151 155 152 152 145 124 110 139 139 140 145 160 168 163 162 155 144 146 172 199 189 182 196 179 179 188 195 202 212 223 233 248
272 285 319 321 323 329 359 31 60 88 123 147 145 154 164 162 165 159 138 143 145 155 168 185 176 172 157 150 149 162 184 194 189 183 184 186 202 214 215 221 211 213 223 221
222 231 210 259 290 307 58 41 71 92 89 122 150 159 153 164 173 155 146 142 142 150 162 179 168 169 168 166 159 164 182 193 200 198 192 193 204 288 283 241 249 224 221 220
225 236 217 250 290 308 251 325 91 107 141 149 140 140 144 150 156 140 137 145 156 169 169 163 161 181 196 180 168 175 190 198 200 195 193 199 208 219 282 321 329 270 253 249
225 183 269 273 263 314 67 91 95 84 101 122 117 113 120 110 115 135 159 171 156 145 146 158 171 207 219 184 176 183 188 198 194 198 201 206 210 215 213 236 285 299 290 275
264 214 205 224 12 49 68 86 78 57 61 83 104 119 124 124 146 169 162 128 120 121 134 161 189 234 224 175 169 181 189 200 193 192 201 200 196 201 205 228 250 276 311 317
289 233 149 139 161 187 85 98 113 216 168 141 135 152 153 160 156 126 123 133 140 168 195 193 218 241 214 180 176 190 210 215 185 179 195 199 188 193 209 240 262 270 272 279
173 195 170 177 203 207 197 186 194 213 209 196 187 172 149 135 122 129 145 165 176 193 200 202 230 238 199 191 190 201 206 210 200 189 202 202 200 207 211 228 252 265 269 262
209 208 198 191 200 206 225 228 213 214 219 216 165 146 153 158 170 186 190 160 130 64 275 242 228 203 211 210 199 201 194 196 198 206 208 204 209 214 213 234 254 269 285 287
186 181 189 189 192 189 203 216 217 221 201 153 151 160 167 173 183 192 176 149 157 221 268 274 228 178 229 241 202 185 186 189 197 208 206 207 219 219 227 240 253 263 273 286
95 110 119 126 176 168 193 212 182 181 170 153 146 143 149 183 175 164 147 164 209 222 226 226 210 212 237 235 190 175 185 188 199 206 208 217 229 236 236 250 266 277 282 278
82 78 85 54 10 6 204 185 173 188 173 155 161 173 181 196 186 161 150 214 259 234 205 195 187 213 238 221 179 169 181 191 203 210 219 227 235 240 244 252 264 267 271 273
75 79 43 16 40 346 314 226 175 165 154 161 165 162 161 183 202 223 226 223 240 237 205 197 204 212 205 171 169 172 179 195 218 228 236 233 229 234 246 253 258 265 266 270
145 104 279 295 260 285 341 330 161 156 169 185 184 184 191 205 201 199 250 257 213 199 197 218 221 208 193 161 169 181 190 203 223 235 241 240 245 250 253 260 266 270 275 280
23 11 335 3 70 74 337 296 297 165 188 225 228 214 193 190 245 241 225 218 190 177 190 219 207 191 167 158 164 179 197 215 225 225 223 240 273 281 284 280 280 284 282 285
28 30 47 77 102 206 246 290 344 2 87 32 296 261 220 190 198 218 198 185 174 161 168 194 187 173 154 153 166 185 200 209 204 189 191 241 291 292 292 295 295 294 297 306
32 37 285 250 222 228 250 238 242 252 192 238 303 296 253 170 176 185 170 167 163 168 166 137 142 156 153 154 168 184 182 172 162 160 181 236 279 284 287 300 318 327 323 321
33 25 354 335 321 267 234 228 230 257 231 187 265 296 295 166 148 154 152 150 150 158 155 145 147 164 173 164 160 166 164 154 152 159 171 221 259 285 303 317 337 344 340 339